Buckeye, AZ

4:05 AM MST on July 19, 2019 (GMT -0700)
Buckeye Municipal

Weather History for KBXK - May, 2019

Change the Weather History Date:

Saturday, May 18, 2019

  Actual Average (WUND) Record (WUND)
Temperature  
Mean Temperature 68 °F -  
Max Temperature 84 °F - - (-1)
Min Temperature 53 °F - - (-1)
Cooling Degree Days 4    
Growing Degree Days 18 (Base 50)    
Moisture  
Dew Point 26 °F    
Average Humidity 20    
Maximum Humidity 38    
Minimum Humidity 9    
Precipitation  
Precipitation 0.00 in - - ()
Sea Level Pressure  
Sea Level Pressure 29.86 in    
Wind  
Wind Speed 6 mph (SW)    
Max Wind Speed 13 mph    
Max Gust Speed 17 mph    
Visibility 9 miles    
Events      
Averages and records for this station are not official NWS values.
T = Trace of Precipitation, MM = Missing Value Source: NWS Daily Summary

Daily Weather History Graph

Daily Weather History Graph

Search for Another Location

Airport or City:

Astronomy

May. 18, 2019 Rise Set
Actual Time 5:28 AM MST 7:26 PM MST
Civil Twilight 5:01 AM MST 7:53 PM MST
Nautical Twilight 4:27 AM MST 8:27 PM MST
Astronomical Twilight 3:51 AM MST 9:03 PM MST
Moon 7:28 PM MST (5/18) 5:33 AM MST (5/18)
Length of Visible Light 14h 52m
Length of Day
13h 57m
Full, 100% of the Moon is Illuminated
May 18
Full
May 18
Full
May 26
Last Quarter
Jun 3
New
Jun 9
First Quarter

Hourly Weather History & Observations

Time (MST) Temp. Dew Point Humidity Pressure Visibility Wind Dir Wind Speed Gust Speed Precip Events Conditions
12:15 AM 62.6 °F 24.8 °F 24% 29.86 in 10.0 mi North 3.5 mph - N/A   Clear
12:35 AM 62.6 °F 24.8 °F 24% 29.86 in 10.0 mi North 4.6 mph - N/A   Clear
12:55 AM 60.8 °F 24.8 °F 25% 29.86 in 10.0 mi NNW 5.8 mph - N/A   Clear
1:15 AM 59.0 °F 26.6 °F 29% 29.86 in 4.0 mi North 5.8 mph - N/A   Clear
1:35 AM 55.4 °F 26.6 °F 33% 29.86 in 7.0 mi WNW 3.5 mph - N/A   Unknown
1:55 AM 55.4 °F 24.8 °F 31% 29.85 in 7.0 mi NW 3.5 mph - N/A   Clear
2:15 AM 53.6 °F 24.8 °F 33% 29.85 in 10.0 mi NW 4.6 mph - N/A   Clear
2:35 AM 53.6 °F 23.0 °F 30% 29.86 in 10.0 mi NW 4.6 mph - N/A   Clear
2:55 AM 55.4 °F 26.6 °F 33% 29.86 in 10.0 mi SW 5.8 mph - N/A   Unknown
3:15 AM 53.6 °F 28.4 °F 38% 29.87 in 10.0 mi WSW 5.8 mph - N/A   Unknown
3:35 AM 53.6 °F 26.6 °F 35% 29.87 in 10.0 mi WNW 5.8 mph - N/A   Unknown
3:55 AM 53.6 °F 23.0 °F 30% 29.87 in 10.0 mi NW 6.9 mph - N/A   Clear
4:15 AM 53.6 °F 23.0 °F 30% 29.87 in 10.0 mi NW 8.1 mph - N/A   Clear
4:35 AM 53.6 °F 23.0 °F 30% 29.87 in 10.0 mi North 6.9 mph - N/A   Clear
4:55 AM 53.6 °F 23.0 °F 30% 29.87 in 10.0 mi NE 5.8 mph - N/A   Clear
5:15 AM 53.6 °F 24.8 °F 33% 29.87 in 10.0 mi North 9.2 mph - N/A   Clear
5:35 AM 53.6 °F 23.0 °F 30% 29.87 in 10.0 mi North 8.1 mph - N/A   Clear
5:55 AM 55.4 °F 24.8 °F 31% 29.87 in 10.0 mi NNE 3.5 mph - N/A   Clear
6:15 AM 57.2 °F 24.8 °F 29% 29.88 in 10.0 mi NNE 3.5 mph - N/A   Clear
6:35 AM 60.8 °F 26.6 °F 27% 29.89 in 10.0 mi NNE 3.5 mph - N/A   Clear
6:55 AM 62.6 °F 28.4 °F 27% 29.90 in 10.0 mi East 3.5 mph - N/A   Clear
7:15 AM 62.6 °F 28.4 °F 27% 29.90 in 10.0 mi East 4.6 mph - N/A   Clear
7:35 AM 64.4 °F 32.0 °F 30% 29.90 in 10.0 mi ESE 4.6 mph - N/A   Clear
7:55 AM 64.4 °F 32.0 °F 30% 29.90 in 10.0 mi ESE 3.5 mph - N/A   Clear
8:15 AM 66.2 °F 33.8 °F 30% 29.91 in 10.0 mi Calm Calm - N/A   Clear
8:35 AM 68.0 °F 32.0 °F 26% 29.91 in 7.0 mi SW 3.5 mph - N/A   Clear
8:55 AM 69.8 °F 32.0 °F 25% 29.91 in 7.0 mi SW 3.5 mph - N/A   Clear
9:15 AM 71.6 °F 32.0 °F 23% 29.91 in 8.0 mi WSW 4.6 mph - N/A   Clear
9:35 AM 73.4 °F 28.4 °F 19% 29.91 in 7.0 mi South 5.8 mph - N/A   Clear
9:55 AM 75.2 °F 28.4 °F 18% 29.91 in 10.0 mi SSW 5.8 mph - N/A   Clear
10:15 AM 75.2 °F 28.4 °F 18% 29.91 in 10.0 mi SW 4.6 mph - N/A   Clear
10:35 AM 77.0 °F 28.4 °F 17% 29.91 in 10.0 mi SSW 3.5 mph - N/A   Clear
10:55 AM 77.0 °F 28.4 °F 17% 29.91 in 10.0 mi South 5.8 mph - N/A   Clear
11:15 AM 78.8 °F 26.6 °F 15% 29.91 in 10.0 mi WSW 4.6 mph - N/A   Clear
11:35 AM 78.8 °F 26.6 °F 15% 29.91 in 10.0 mi WSW 4.6 mph - N/A   Clear
11:55 AM 80.6 °F 24.8 °F 13% 29.90 in 10.0 mi South 5.8 mph - N/A   Clear
12:15 PM 80.6 °F 26.6 °F 14% 29.90 in 10.0 mi South 5.8 mph - N/A   Clear
12:35 PM 80.6 °F 24.8 °F 13% 29.89 in 10.0 mi SE 10.4 mph - N/A   Clear
12:55 PM 82.4 °F 24.8 °F 12% 29.88 in 10.0 mi SSE 8.1 mph - N/A   Clear
1:15 PM 82.4 °F 24.8 °F 12% 29.88 in 10.0 mi SE 9.2 mph - N/A   Clear
1:35 PM 82.4 °F 24.8 °F 12% 29.88 in 10.0 mi SE 11.5 mph 16.1 mph N/A   Clear
1:55 PM 82.4 °F 23.0 °F 11% 29.88 in 8.0 mi SE 10.4 mph - N/A   Clear
2:15 PM 84.2 °F 23.0 °F 11% 29.87 in 10.0 mi South 8.1 mph 16.1 mph N/A   Clear
2:35 PM 82.4 °F 24.8 °F 12% 29.86 in 9.0 mi South 12.7 mph 17.3 mph N/A   Clear
2:55 PM 84.2 °F 24.8 °F 11% 29.85 in 10.0 mi SSW 10.4 mph 16.1 mph N/A   Clear
3:15 PM 84.2 °F 24.8 °F 11% 29.85 in 9.0 mi SSW 8.1 mph - N/A   Clear
3:35 PM 84.2 °F 23.0 °F 11% 29.83 in 10.0 mi SW 11.5 mph - N/A   Clear
3:55 PM 84.2 °F 23.0 °F 11% 29.82 in 10.0 mi WNW 4.6 mph - N/A   Clear
4:15 PM 84.2 °F 23.0 °F 11% 29.82 in 10.0 mi South 8.1 mph - N/A   Clear
4:35 PM 84.2 °F 23.0 °F 11% 29.82 in 10.0 mi South 9.2 mph - N/A   Clear
4:55 PM 84.2 °F 24.8 °F 11% 29.82 in 10.0 mi WSW 5.8 mph - N/A   Clear
5:15 PM 84.2 °F 23.0 °F 11% 29.82 in 9.0 mi SW 8.1 mph - N/A   Clear
5:35 PM 84.2 °F 21.2 °F 10% 29.81 in 10.0 mi SSW 8.1 mph - N/A   Clear
5:55 PM 82.4 °F 24.8 °F 12% 29.80 in 9.0 mi South 4.6 mph - N/A   Clear
6:15 PM 84.2 °F 19.4 °F 9% 29.80 in 9.0 mi WSW 6.9 mph - N/A   Clear
6:35 PM 82.4 °F 24.8 °F 12% 29.80 in 10.0 mi WSW 6.9 mph - N/A   Clear
6:55 PM 80.6 °F 26.6 °F 14% 29.80 in 9.0 mi SW 8.1 mph - N/A   Clear
7:15 PM 80.6 °F 26.6 °F 14% 29.81 in 5.0 mi SW 5.8 mph - N/A   Clear
7:35 PM 77.0 °F 26.6 °F 16% 29.81 in 7.0 mi SW 6.9 mph - N/A   Clear
7:55 PM 77.0 °F 24.8 °F 14% 29.80 in 7.0 mi SW 5.8 mph - N/A   Clear
8:15 PM 77.0 °F 26.6 °F 16% 29.80 in 6.0 mi SSW 3.5 mph - N/A   Partly Cloudy
8:35 PM 75.2 °F 32.0 °F 21% 29.80 in 3.0 mi WSW 4.6 mph - N/A   Partly Cloudy
8:55 PM 75.2 °F 26.6 °F 17% 29.81 in 8.0 mi SW 3.5 mph - N/A   Scattered Clouds
9:15 PM 75.2 °F 24.8 °F 15% 29.81 in 10.0 mi Calm Calm - N/A   Unknown
9:35 PM 75.2 °F 24.8 °F 15% 29.81 in 10.0 mi Calm Calm - N/A   Partly Cloudy
9:55 PM 73.4 °F 23.0 °F 15% 29.81 in 10.0 mi Calm Calm - N/A   Partly Cloudy
10:15 PM 73.4 °F 23.0 °F 15% 29.82 in 10.0 mi SW 5.8 mph - N/A   Partly Cloudy
10:35 PM 69.8 °F 24.8 °F 18% 29.82 in 10.0 mi SW 6.9 mph - N/A   Clear
10:55 PM 71.6 °F 28.4 °F 20% 29.82 in 10.0 mi SW 10.4 mph - N/A   Clear
11:15 PM 71.6 °F 28.4 °F 20% 29.81 in 10.0 mi SW 9.2 mph - N/A   Clear
11:35 PM 71.6 °F 32.0 °F 23% 29.82 in 10.0 mi SW 9.2 mph - N/A   Clear
11:55 PM 71.6 °F 32.0 °F 23% 29.81 in 10.0 mi SW 9.2 mph - N/A   Clear